Temp
17 18 19 19 20 21 21 22 23 25 27 27 27 28 28 29 30 30 30 30 31 31 30 30 31 32 33 34 33 33 34 33 33 33 33 33 33 33 33 33 32 31 31 29 29 32 33 33 34 33 35 34 33 33 34 36 35 35 35 35 35 35 39
17 18 18 18 19 20 21 22 23 26 26 25 25 26 29 29 29 30 30 30 29 30 30 31 31 31 32 33 32 33 33 33 33 32 32 32 33 33 33 34 33 32 31 30 29 28 31 31 33 32 34 33 32 32 33 33 34 35 35 35 35 34 34
17 18 19 19 19 20 21 23 23 24 24 23 24 24 25 28 29 29 29 29 29 29 30 30 30 31 32 33 31 32 32 33 32 32 32 32 33 32 33 34 34 33 31 31 28 29 29 29 31 32 32 33 34 33 33 33 33 34 34 35 35 34 35
19 19 19 19 20 21 21 21 21 22 22 23 24 23 24 25 27 29 29 29 29 29 30 30 30 31 31 32 31 31 32 32 32 32 32 32 33 33 33 33 34 33 33 32 31 27 29 29 30 30 31 32 33 32 32 32 33 34 33 33 34 34 34
17 17 17 18 19 19 19 19 19 20 21 22 24 23 23 24 25 28 29 29 30 30 29 29 30 30 31 31 30 31 31 32 31 32 32 32 33 33 33 33 33 33 33 32 32 30 29 30 30 31 31 31 30 30 30 31 31 32 32 32 33 34 34
16 16 16 16 16 17 17 18 18 18 20 21 22 23 23 24 25 26 28 29 29 28 28 28 29 30 31 31 30 30 31 31 31 32 31 31 32 33 33 33 33 33 32 32 33 31 28 29 28 29 28 30 31 29 27 27 27 29 29 30 29 30 31
15 15 15 15 16 16 16 17 17 17 19 20 21 21 22 23 24 26 27 28 28 27 26 26 26 27 28 29 30 31 31 31 31 31 30 31 32 33 32 32 32 32 32 32 31 31 29 28 30 30 27 29 31 30 30 27 26 24 27 28 28 26 28
14 15 15 15 15 16 16 16 16 17 18 18 20 20 21 22 23 24 26 27 27 25 24 25 25 25 26 27 29 30 31 32 31 31 30 31 32 32 32 31 32 32 31 31 31 30 27 28 28 29 29 30 29 28 27 28 27 24 23 23 25 26 27
15 14 13 15 15 15 16 15 15 16 17 17 17 19 20 22 23 24 25 26 26 26 25 24 24 25 25 27 30 31 32 32 33 31 30 30 31 31 31 31 31 31 31 30 31 29 28 28 27 28 28 26 26 26 26 27 25 24 26 25 24 24 28
14 14 13 13 13 14 14 14 15 18 21 22 20 19 21 22 23 24 25 25 25 25 25 25 25 26 28 29 30 31 32 33 33 33 33 30 30 30 31 31 30 30 30 30 29 28 27 25 25 26 27 27 27 28 28 26 26 25 25 24 21 23 24
13 13 13 13 13 13 14 14 16 20 22 24 25 24 23 23 23 25 25 25 25 25 24 24 25 25 27 29 30 30 32 32 33 33 33 33 32 32 30 30 30 30 30 29 29 29 27 26 24 26 28 27 26 28 28 26 26 26 25 22 21 19 23
13 13 13 14 14 14 15 16 20 23 24 25 26 26 24 24 24 25 25 26 26 25 25 25 25 25 25 26 27 27 28 31 33 33 33 33 33 33 34 34 31 30 29 29 29 28 27 27 25 25 26 26 27 26 28 27 27 26 25 22 23 22 21
13 13 14 14 14 14 16 16 20 23 25 26 26 27 27 25 26 25 26 26 26 26 26 25 25 24 25 26 30 30 28 28 30 32 33 33 33 33 33 34 35 35 32 32 30 29 27 27 27 25 24 26 27 29 26 26 25 25 25 24 24 24 24
13 14 14 14 15 15 16 16 20 23 25 26 27 28 28 26 26 26 26 27 27 27 26 26 26 25 25 25 26 28 28 28 28 28 29 31 31 31 32 33 34 34 34 33 32 30 28 29 29 25 26 26 29 28 25 26 24 26 24 24 24 27 25
13 14 14 15 15 15 16 17 22 24 26 27 28 28 29 27 26 26 27 27 27 27 27 27 27 28 27 27 27 28 30 29 28 28 28 29 30 30 30 30 30 30 31 32 32 31 31 30 29 29 28 28 29 29 29 29 27 27 26 25 24 22 24
14 14 15 16 16 16 16 18 23 26 27 28 29 30 28 28 27 27 27 27 27 28 28 28 29 29 29 29 28 30 32 32 30 28 28 29 30 30 30 29 32 34 34 33 32 31 31 30 30 32 29 29 29 29 28 27 26 25 23 22 21 18 21
15 16 16 17 18 17 18 20 24 27 30 31 32 31 29 28 28 28 27 28 29 29 30 30 31 31 30 30 29 30 32 33 32 28 28 29 29 30 30 28 29 34 36 36 35 35 34 34 34 34 33 33 32 29 28 26 23 21 23 21 18 18 18
15 16 18 19 20 22 22 24 26 29 30 31 33 32 28 29 29 28 28 28 30 30 31 31 32 32 30 30 29 32 33 33 32 29 28 28 28 27 27 28 28 27 32 36 36 35 35 34 34 34 33 33 32 31 29 25 22 22 23 20 21 17 18
15 16 18 19 20 22 23 23 25 28 29 31 32 31 30 29 28 28 27 28 28 29 30 30 31 32 31 31 31 33 33 33 32 29 29 28 28 26 25 27 26 25 25 28 31 31 32 31 32 32 31 31 32 31 29 27 26 25 23 21 21 18 17
15 14 15 17 17 18 20 21 22 25 28 30 31 32 29 28 27 26 26 27 27 27 27 28 29 31 32 33 33 33 34 34 34 31 30 29 28 27 25 27 24 24 25 26 28 30 30 30 31 31 30 30 30 29 28 28 27 26 25 23 21 19 19
13 14 15 16 18 17 18 19 19 22 27 29 30 31 30 26 26 23 21 20 22 24 26 27 28 28 31 32 33 34 34 35 34 33 31 30 28 29 30 30 25 26 28 25 26 27 29 29 29 29 29 28 29 28 28 28 27 27 27 25 22 19 19
14 15 16 17 19 18 18 20 23 21 25 29 30 30 31 27 24 23 21 20 19 21 23 24 26 28 30 31 33 33 34 34 34 34 32 31 33 33 33 30 28 27 27 25 25 25 26 27 26 26 27 27 27 26 26 26 26 26 27 28 26 23 20
15 15 16 17 19 20 20 22 23 26 26 28 29 29 30 30 29 31 28 26 25 24 24 23 23 26 30 31 33 34 34 34 34 33 32 34 34 33 33 31 28 27 27 26 26 26 25 26 26 25 25 25 24 24 24 23 23 22 20 17 18 20 22
16 16 16 17 19 22 23 25 25 25 27 25 27 28 30 30 31 31 27 27 26 26 26 25 24 25 30 31 32 33 34 33 33 32 33 34 33 33 32 31 28 27 27 26 26 25 25 25 26 26 24 23 22 19 17 15 15 15 15 15 13 13 14
16 16 17 19 20 22 24 26 25 18 21 26 27 28 29 30 30 30 30 28 26 26 26 28 30 30 30 31 31 32 32 32 32 33 33 33 32 32 32 31 29 28 27 26 24 25 25 25 25 25 23 20 15 12 12 12 11 10 10 9 9 7 6
17 18 19 19 21 23 25 25 21 21 22 23 25 25 27 29 30 30 30 29 26 27 28 28 29 29 30 29 29 28 27 27 28 30 31 31 32 31 31 30 29 28 26 25 25 24 24 21 17 15 14 14 15 15 14 13 12 12 11 13 12 10 6
18 19 20 22 23 24 25 24 20 20 22 23 23 22 24 24 24 25 25 22 22 24 24 27 27 27 27 27 27 26 26 25 27 27 26 24 27 30 30 30 30 29 27 26 25 23 18 15 13 13 13 14 15 14 14 15 14 13 11 12 11 9 5
20 21 22 22 23 24 24 23 20 21 22 24 24 23 23 22 19 16 16 20 21 23 24 23 24 24 23 23 22 22 21 21 21 21 21 22 22 22 24 26 27 24 22 21 20 15 13 11 12 13 13 14 13 12 12 13 13 12 10 10 11 8 4
22 23 24 24 23 23 23 23 22 24 28 27 27 24 21 19 17 16 18 24 25 22 22 22 21 20 20 19 19 18 18 18 19 18 19 19 19 20 20 20 20 18 16 15 14 12 11 11 12 12 12 11 10 9 10 12 12 11 11 9 10 10 6
24 25 25 24 25 26 24 23 25 30 30 29 28 28 28 27 27 27 25 25 25 22 19 18 17 17 17 17 17 16 16 15 15 16 16 16 18 17 16 15 14 14 13 14 13 13 12 12 11 10 10 10 8 7 8 11 13 10 11 10 9 7 6
27 28 28 26 25 27 30 30 30 30 30 30 30 30 29 29 28 27 27 26 21 18 17 16 16 16 16 16 16 16 15 14 13 13 14 13 13 14 14 13 13 13 13 13 13 13 12 12 11 10 9 8 7 7 8 8 9 10 11 10 8 7 4
26 27 27 28 28 28 23 29 30 31 31 30 30 29 29 28 28 27 26 25 23 17 15 15 15 14 14 15 14 13 14 14 14 13 13 13 11 10 11 11 11 12 12 12 12 11 11 11 10 9 8 8 7 7 7 7 7 8 8 7 7 6 5
25 26 26 27 27 29 29 29 29 30 30 29 29 28 27 27 26 26 25 22 15 11 11 12 12 12 12 13 12 12 13 13 12 11 11 11 10 9 9 9 11 12 11 11 11 11 10 10 9 8 8 7 7 7 6 7 7 6 6 6 4 3 3
23 24 25 25 26 27 27 27 28 28 28 28 27 26 26 24 22 23 23 19 12 11 8 6 7 8 10 11 11 12 12 11 10 9 8 7 7 8 10 11 12 12 11 11 11 10 9 9 8 8 7 7 7 7 6 5 4 4 4 3 3 2 0
16 20 23 22 23 25 26 26 26 26 26 26 25 25 24 20 13 10 9 11 11 11 8 6 4 6 7 9 10 10 10 9 7 6 5 5 7 8 10 10 11 10 10 10 9 9 9 8 8 8 8 7 6 6 5 4 4 4 5 3 2 1 -1
15 16 19 22 22 23 24 24 24 24 24 23 23 22 20 12 9 9 8 7 6 5 5 5 4 6 9 10 10 10 8 7 3 -0 1 1 4 5 6 8 9 9 9 8 7 6 7 8 8 8 7 7 7 6 4 4 4 4 3 3 2 2 -0
MSLP
1017.75 1017.47 1017.19 1016.91 1016.59 1016.27 1015.99 1015.67 1015.19 1014.71 1014.19 1013.75 1013.35 1012.79 1012.55 1012.51 1012.43 1012.31 1012.31 1012.27 1012.23 1012.27 1012.35 1012.35 1012.35 1012.31 1012.31 1012.39 1012.51 1012.47 1012.51 1012.67 1012.83 1012.99 1013.11 1013.23 1013.27 1013.35 1013.43 1013.59 1013.71 1013.63 1013.47 1013.83 1014.15 1013.95 1014.19 1014.67 1014.95 1015.51 1015.67 1016.11 1016.55 1016.95 1017.19 1017.39 1017.67 1017.91 1017.99 1018.07 1018.27 1018.55 1018.75
1017.35 1017.03 1016.83 1016.55 1016.27 1015.95 1015.51 1015.11 1014.67 1014.19 1013.91 1013.71 1013.43 1012.91 1012.27 1011.99 1011.91 1011.91 1011.91 1011.95 1011.91 1011.91 1011.95 1011.91 1011.91 1011.95 1012.03 1012.11 1012.23 1012.19 1012.19 1012.27 1012.47 1012.67 1012.87 1012.95 1013.03 1013.07 1013.07 1013.15 1013.31 1013.31 1013.27 1013.35 1014.11 1014.31 1014.47 1014.75 1014.83 1015.03 1015.43 1015.79 1016.31 1016.59 1016.91 1017.23 1017.47 1017.59 1017.55 1017.59 1017.83 1018.19 1018.43
1016.83 1016.55 1016.31 1015.99 1015.67 1015.31 1014.91 1014.51 1014.27 1013.99 1013.75 1013.55 1013.31 1012.99 1012.63 1012.03 1011.51 1011.39 1011.43 1011.51 1011.55 1011.55 1011.55 1011.59 1011.59 1011.59 1011.67 1011.79 1011.95 1011.91 1011.87 1011.95 1012.19 1012.43 1012.55 1012.63 1012.71 1012.79 1012.79 1012.87 1012.95 1013.07 1012.99 1013.07 1013.63 1014.07 1014.11 1014.55 1014.67 1014.67 1015.07 1015.51 1015.79 1016.19 1016.43 1016.83 1017.07 1017.15 1017.23 1017.31 1017.47 1017.75 1018.03
1016.39 1016.23 1015.99 1015.63 1015.03 1014.63 1014.47 1014.39 1014.11 1013.87 1013.59 1013.35 1013.11 1012.87 1012.59 1012.27 1011.63 1011.11 1010.91 1010.95 1011.03 1011.15 1011.19 1011.19 1011.27 1011.27 1011.35 1011.47 1011.59 1011.63 1011.71 1011.79 1011.95 1012.11 1012.27 1012.31 1012.39 1012.51 1012.55 1012.63 1012.79 1012.75 1012.67 1012.59 1012.87 1014.07 1014.03 1014.23 1014.39 1014.71 1014.95 1015.35 1015.75 1016.11 1016.43 1016.59 1016.83 1016.99 1017.07 1017.15 1017.27 1017.47 1017.79
1016.35 1016.15 1015.87 1015.47 1015.03 1014.75 1014.55 1014.35 1014.15 1013.83 1013.47 1013.15 1012.87 1012.67 1012.39 1012.07 1011.75 1011.11 1010.59 1010.47 1010.51 1010.59 1010.71 1010.83 1010.87 1010.95 1011.03 1011.15 1011.27 1011.35 1011.51 1011.63 1011.75 1011.83 1011.95 1012.03 1012.07 1012.19 1012.27 1012.39 1012.51 1012.63 1012.63 1012.59 1012.51 1013.27 1013.91 1014.15 1014.43 1014.55 1014.83 1015.19 1015.59 1016.15 1016.43 1016.63 1016.71 1016.75 1016.87 1017.07 1017.23 1017.43 1017.67
1016.03 1015.87 1015.67 1015.43 1015.15 1014.87 1014.55 1014.27 1013.99 1013.71 1013.31 1012.99 1012.67 1012.39 1012.15 1011.91 1011.59 1011.19 1010.63 1010.27 1010.15 1010.27 1010.39 1010.55 1010.63 1010.67 1010.75 1010.87 1010.99 1011.07 1011.19 1011.31 1011.43 1011.55 1011.67 1011.75 1011.79 1011.83 1011.91 1012.07 1012.23 1012.39 1012.47 1012.55 1012.39 1012.63 1013.83 1014.15 1014.47 1014.67 1015.03 1015.07 1015.31 1015.67 1016.23 1016.51 1016.67 1016.71 1016.87 1016.99 1017.27 1017.51 1017.75
1015.63 1015.43 1015.27 1014.99 1014.75 1014.51 1014.27 1013.99 1013.71 1013.47 1013.11 1012.71 1012.39 1012.15 1011.95 1011.71 1011.39 1011.03 1010.71 1010.39 1010.23 1010.15 1010.23 1010.31 1010.39 1010.51 1010.55 1010.63 1010.67 1010.79 1010.91 1010.99 1011.15 1011.27 1011.39 1011.39 1011.43 1011.51 1011.63 1011.79 1011.91 1012.07 1012.27 1012.35 1012.47 1012.63 1012.99 1013.55 1013.95 1014.07 1014.67 1014.99 1015.15 1015.35 1015.35 1015.67 1016.47 1016.75 1016.79 1016.87 1017.15 1017.67 1017.87
1015.23 1014.95 1014.75 1014.51 1014.31 1014.07 1013.83 1013.59 1013.35 1013.07 1012.83 1012.55 1012.23 1012.03 1011.79 1011.55 1011.27 1010.95 1010.63 1010.31 1010.15 1010.11 1010.15 1010.19 1010.23 1010.27 1010.35 1010.39 1010.43 1010.47 1010.51 1010.63 1010.83 1010.99 1011.11 1011.07 1011.11 1011.23 1011.39 1011.51 1011.63 1011.79 1011.99 1012.15 1012.27 1012.43 1013.07 1013.19 1013.59 1014.07 1014.47 1014.79 1015.27 1015.67 1015.79 1015.55 1015.43 1015.99 1016.63 1017.03 1017.19 1017.51 1017.83
1014.79 1014.55 1014.27 1013.99 1013.79 1013.55 1013.31 1013.15 1012.87 1012.63 1012.39 1012.23 1011.95 1011.83 1011.63 1011.31 1011.03 1010.79 1010.51 1010.23 1010.03 1009.99 1010.03 1010.03 1010.03 1010.03 1010.03 1010.07 1010.11 1010.15 1010.19 1010.19 1010.31 1010.55 1010.71 1010.79 1010.91 1010.99 1011.11 1011.23 1011.39 1011.51 1011.71 1011.83 1011.91 1012.31 1012.63 1013.03 1013.43 1013.75 1014.11 1014.79 1015.19 1015.03 1014.59 1014.99 1015.39 1015.95 1016.39 1016.91 1017.23 1017.55 1017.63
1014.35 1014.11 1013.87 1013.63 1013.31 1013.07 1012.83 1012.59 1012.31 1011.99 1011.63 1011.39 1011.31 1011.23 1011.07 1010.87 1010.63 1010.43 1010.19 1010.03 1009.87 1009.79 1009.79 1009.75 1009.71 1009.71 1009.67 1009.71 1009.75 1009.83 1009.91 1009.95 1009.99 1010.03 1010.15 1010.35 1010.59 1010.71 1010.83 1010.95 1011.15 1011.31 1011.43 1011.55 1011.67 1012.03 1012.43 1012.87 1013.07 1013.39 1013.51 1013.79 1013.95 1014.11 1014.55 1015.19 1015.51 1015.71 1016.31 1016.99 1017.59 1017.75 1017.83
1013.87 1013.59 1013.31 1013.03 1012.79 1012.47 1012.19 1011.91 1011.63 1011.27 1010.95 1010.63 1010.39 1010.39 1010.35 1010.31 1010.11 1009.95 1009.83 1009.71 1009.59 1009.51 1009.43 1009.39 1009.43 1009.43 1009.39 1009.39 1009.43 1009.51 1009.55 1009.63 1009.67 1009.71 1009.83 1009.95 1010.03 1010.15 1010.35 1010.63 1010.87 1010.95 1011.07 1011.31 1011.43 1011.75 1012.03 1012.27 1012.59 1012.79 1013.03 1013.27 1013.63 1014.03 1014.23 1014.59 1014.79 1015.31 1015.95 1016.75 1017.19 1017.63 1017.75
1013.39 1013.03 1012.75 1012.47 1012.15 1011.83 1011.47 1011.15 1010.79 1010.43 1010.15 1009.91 1009.71 1009.67 1009.67 1009.63 1009.59 1009.51 1009.39 1009.31 1009.23 1009.19 1009.11 1009.07 1009.07 1009.11 1009.19 1009.23 1009.19 1009.19 1009.27 1009.31 1009.35 1009.39 1009.51 1009.63 1009.75 1009.83 1009.91 1009.91 1010.15 1010.51 1010.79 1010.95 1011.19 1011.55 1011.83 1011.87 1011.95 1012.27 1012.55 1013.07 1013.39 1013.83 1014.07 1014.43 1014.75 1015.03 1015.35 1016.07 1016.19 1016.55 1016.79
1012.91 1012.51 1012.15 1011.91 1011.59 1011.23 1010.91 1010.55 1010.11 1009.79 1009.43 1009.19 1009.03 1008.95 1008.95 1008.95 1008.87 1008.95 1008.91 1008.87 1008.79 1008.79 1008.79 1008.79 1008.83 1008.87 1008.91 1008.87 1008.79 1008.87 1008.99 1009.07 1009.07 1009.07 1009.23 1009.39 1009.55 1009.63 1009.67 1009.67 1009.75 1009.91 1010.15 1010.39 1010.71 1011.03 1011.47 1011.39 1011.47 1011.87 1012.27 1012.43 1012.67 1013.07 1013.55 1014.19 1014.71 1015.03 1015.19 1015.31 1015.31 1015.63 1016.11
1012.51 1012.03 1011.71 1011.39 1011.07 1010.67 1010.27 1009.95 1009.51 1009.15 1008.79 1008.55 1008.35 1008.27 1008.27 1008.31 1008.31 1008.31 1008.31 1008.31 1008.31 1008.31 1008.35 1008.39 1008.51 1008.55 1008.59 1008.55 1008.59 1008.59 1008.67 1008.75 1008.83 1008.87 1009.07 1009.19 1009.35 1009.47 1009.55 1009.59 1009.55 1009.67 1009.91 1010.15 1010.39 1010.59 1010.91 1010.95 1011.11 1011.35 1011.55 1012.07 1012.43 1012.83 1013.43 1013.67 1014.27 1014.47 1014.91 1015.19 1015.23 1015.23 1015.71
1012.07 1011.59 1011.23 1010.83 1010.51 1010.15 1009.79 1009.35 1008.79 1008.39 1008.03 1007.83 1007.63 1007.51 1007.51 1007.55 1007.67 1007.71 1007.67 1007.71 1007.75 1007.79 1007.79 1007.83 1007.91 1007.99 1008.03 1008.11 1008.23 1008.19 1008.19 1008.39 1008.51 1008.63 1008.79 1008.99 1009.11 1009.23 1009.35 1009.43 1009.47 1009.55 1009.75 1010.03 1010.23 1010.35 1010.51 1010.75 1011.03 1011.11 1011.47 1011.99 1012.27 1012.35 1012.47 1012.79 1013.39 1013.83 1014.39 1014.95 1015.51 1015.95 1016.19
1011.67 1011.23 1010.75 1010.35 1010.07 1009.71 1009.23 1008.67 1008.11 1007.67 1007.27 1007.03 1006.83 1006.63 1006.67 1006.71 1006.83 1006.91 1006.99 1007.07 1007.15 1007.19 1007.23 1007.27 1007.35 1007.39 1007.43 1007.51 1007.63 1007.59 1007.59 1007.75 1008.03 1008.31 1008.51 1008.63 1008.75 1008.95 1009.11 1009.23 1009.15 1009.15 1009.35 1009.63 1009.95 1010.19 1010.47 1010.71 1010.87 1011.07 1011.39 1011.79 1012.15 1012.55 1012.87 1013.31 1013.91 1014.43 1014.87 1015.23 1015.71 1016.23 1016.43
1011.31 1010.87 1010.43 1009.91 1009.47 1009.23 1008.71 1008.07 1007.55 1007.07 1006.55 1006.03 1005.55 1005.39 1005.55 1005.67 1005.83 1005.99 1006.19 1006.31 1006.39 1006.47 1006.51 1006.55 1006.59 1006.71 1006.83 1006.95 1007.07 1007.07 1007.23 1007.31 1007.63 1008.03 1008.19 1008.27 1008.39 1008.55 1008.79 1008.99 1009.11 1009.03 1009.11 1009.31 1009.63 1009.95 1010.27 1010.47 1010.71 1010.99 1011.27 1011.55 1011.91 1012.27 1012.67 1013.27 1014.03 1014.67 1014.67 1014.99 1015.59 1016.19 1016.43
1011.03 1010.43 1009.99 1009.51 1008.95 1008.47 1007.99 1007.35 1006.91 1006.47 1006.11 1005.59 1005.07 1004.71 1004.71 1004.79 1004.91 1005.15 1005.39 1005.59 1005.71 1005.79 1005.83 1005.87 1005.99 1006.15 1006.31 1006.47 1006.55 1006.63 1006.79 1006.95 1007.23 1007.63 1007.83 1007.95 1008.15 1008.39 1008.59 1008.71 1008.99 1009.11 1009.11 1009.11 1009.35 1009.67 1009.99 1010.27 1010.51 1010.79 1011.03 1011.35 1011.71 1012.11 1012.43 1012.83 1013.43 1013.95 1014.31 1014.75 1014.75 1015.51 1016.23
1011.03 1010.35 1009.75 1009.35 1008.95 1008.35 1007.87 1007.39 1006.83 1006.39 1006.03 1005.59 1005.19 1004.91 1004.75 1004.71 1004.83 1004.83 1005.03 1005.15 1005.27 1005.35 1005.35 1005.43 1005.51 1005.63 1005.79 1005.95 1006.07 1006.23 1006.39 1006.55 1006.79 1007.11 1007.27 1007.47 1007.79 1008.15 1008.39 1008.39 1008.71 1009.03 1009.19 1009.19 1009.27 1009.55 1009.87 1010.11 1010.31 1010.55 1010.87 1011.19 1011.47 1011.83 1012.23 1012.47 1012.91 1013.63 1013.87 1014.07 1014.35 1015.15 1016.15
1010.95 1010.51 1009.79 1009.19 1008.79 1008.31 1007.83 1007.47 1006.95 1006.55 1006.07 1005.63 1005.35 1005.07 1004.95 1004.91 1004.91 1004.99 1005.07 1005.19 1005.23 1005.31 1005.39 1005.43 1005.47 1005.43 1005.47 1005.55 1005.71 1005.83 1005.95 1006.07 1006.23 1006.55 1006.79 1007.11 1007.43 1007.67 1007.91 1007.99 1008.47 1008.71 1008.87 1009.07 1009.15 1009.43 1009.67 1009.91 1010.19 1010.51 1010.75 1011.07 1011.39 1011.71 1012.03 1012.39 1012.67 1012.87 1013.07 1013.47 1014.03 1014.71 1014.79
1010.79 1010.31 1009.63 1008.99 1008.47 1008.07 1007.59 1007.23 1006.91 1006.47 1006.07 1005.63 1005.43 1005.23 1005.03 1005.07 1005.03 1005.11 1005.23 1005.27 1005.31 1005.31 1005.31 1005.35 1005.35 1005.39 1005.35 1005.31 1005.35 1005.43 1005.47 1005.55 1005.59 1005.91 1006.31 1006.55 1006.83 1006.91 1007.03 1007.71 1008.35 1008.55 1008.71 1008.99 1009.11 1009.39 1009.63 1009.87 1010.15 1010.47 1010.75 1010.99 1011.27 1011.67 1012.03 1012.31 1012.55 1012.75 1012.87 1013.11 1013.71 1014.47 1014.87
1010.47 1009.99 1009.35 1008.67 1008.07 1007.67 1007.27 1006.83 1006.55 1006.35 1006.03 1005.67 1005.39 1005.23 1005.11 1005.07 1005.07 1005.07 1005.15 1005.27 1005.35 1005.35 1005.39 1005.35 1005.27 1005.19 1005.11 1005.07 1005.07 1005.07 1005.11 1005.11 1005.19 1005.39 1005.75 1006.03 1006.23 1006.47 1006.83 1007.27 1007.79 1008.15 1008.51 1008.91 1009.19 1009.43 1009.67 1009.83 1010.11 1010.43 1010.71 1010.95 1011.23 1011.59 1011.91 1012.19 1012.47 1012.67 1012.83 1012.99 1013.15 1013.63 1014.35
1010.15 1009.71 1009.15 1008.47 1007.75 1007.23 1006.87 1006.47 1006.15 1005.91 1005.75 1005.51 1005.35 1005.23 1005.07 1004.91 1004.83 1004.83 1004.87 1005.03 1005.11 1005.11 1005.15 1005.11 1005.07 1005.03 1004.95 1004.87 1004.79 1004.75 1004.71 1004.71 1004.79 1004.95 1005.19 1005.43 1005.75 1006.07 1006.39 1006.83 1007.47 1007.91 1008.27 1008.67 1008.99 1009.27 1009.47 1009.67 1009.95 1010.31 1010.63 1010.95 1011.27 1011.63 1011.91 1012.27 1012.55 1012.79 1013.11 1013.43 1013.71 1013.83 1013.91
1010.11 1009.63 1009.07 1008.43 1007.63 1006.87 1006.35 1005.99 1005.79 1005.71 1005.59 1005.47 1005.31 1005.15 1004.95 1004.79 1004.71 1004.63 1004.67 1004.71 1004.75 1004.79 1004.83 1004.83 1004.79 1004.75 1004.67 1004.63 1004.59 1004.51 1004.43 1004.47 1004.59 1004.59 1004.83 1005.11 1005.35 1005.67 1006.03 1006.43 1007.03 1007.51 1007.79 1008.19 1008.67 1008.91 1009.15 1009.39 1009.59 1009.91 1010.47 1010.91 1011.39 1011.91 1012.39 1012.83 1013.15 1013.43 1013.75 1014.03 1014.39 1014.63 1014.75
1010.07 1009.59 1008.99 1008.27 1007.55 1006.79 1006.19 1005.71 1005.63 1005.63 1005.51 1005.39 1005.19 1005.07 1004.87 1004.63 1004.55 1004.55 1004.51 1004.55 1004.55 1004.59 1004.59 1004.55 1004.51 1004.47 1004.43 1004.39 1004.35 1004.35 1004.39 1004.39 1004.39 1004.47 1004.55 1004.75 1004.99 1005.35 1005.67 1006.03 1006.55 1006.99 1007.35 1007.83 1008.23 1008.51 1008.79 1009.11 1009.39 1009.67 1010.11 1010.79 1011.67 1012.51 1012.99 1013.31 1013.91 1014.19 1014.51 1014.75 1014.95 1015.47 1015.83
1009.83 1009.19 1008.55 1007.95 1007.15 1006.51 1005.95 1005.63 1005.63 1005.55 1005.43 1005.31 1005.19 1005.07 1004.79 1004.51 1004.35 1004.39 1004.35 1004.43 1004.51 1004.51 1004.51 1004.47 1004.43 1004.39 1004.35 1004.35 1004.31 1004.31 1004.31 1004.31 1004.27 1004.31 1004.39 1004.51 1004.67 1004.91 1005.19 1005.55 1005.99 1006.51 1006.95 1007.39 1007.79 1008.19 1008.55 1009.23 1010.03 1010.55 1011.15 1011.55 1011.75 1012.07 1012.67 1013.11 1013.63 1014.07 1014.63 1014.59 1014.79 1015.39 1016.35
1009.59 1008.87 1008.07 1007.35 1006.75 1006.27 1005.87 1005.63 1005.59 1005.51 1005.35 1005.19 1005.07 1005.03 1004.95 1004.83 1004.87 1004.83 1004.83 1004.83 1004.75 1004.67 1004.67 1004.51 1004.47 1004.47 1004.47 1004.51 1004.55 1004.59 1004.51 1004.43 1004.35 1004.19 1004.19 1004.31 1004.43 1004.59 1004.79 1005.07 1005.35 1005.75 1006.23 1006.71 1007.23 1007.87 1008.83 1009.91 1010.55 1011.07 1011.47 1011.79 1011.91 1012.31 1012.83 1012.91 1013.11 1013.63 1014.39 1014.67 1014.99 1015.43 1016.67
1009.19 1008.47 1007.87 1007.31 1006.75 1006.23 1005.83 1005.63 1005.55 1005.39 1005.27 1004.99 1004.83 1004.95 1005.03 1005.07 1005.11 1005.15 1005.11 1005.07 1005.15 1005.11 1005.03 1004.95 1004.91 1004.87 1004.95 1004.91 1004.95 1005.03 1005.07 1005.07 1005.07 1005.07 1004.95 1004.91 1004.87 1004.95 1005.07 1005.19 1005.43 1005.75 1006.15 1006.75 1007.47 1008.59 1009.59 1010.39 1010.75 1010.95 1011.27 1011.67 1012.11 1012.59 1012.99 1013.15 1013.23 1013.59 1014.51 1014.79 1014.87 1015.55 1016.79
1009.07 1008.51 1007.95 1007.39 1006.83 1006.35 1005.91 1005.67 1005.59 1005.35 1005.03 1004.91 1004.95 1005.07 1005.11 1005.19 1005.31 1005.31 1005.27 1005.15 1005.19 1005.23 1005.23 1005.23 1005.23 1005.31 1005.31 1005.39 1005.43 1005.51 1005.55 1005.55 1005.51 1005.59 1005.63 1005.59 1005.63 1005.63 1005.63 1005.75 1005.91 1006.35 1007.07 1007.67 1008.23 1008.99 1009.51 1010.07 1010.51 1011.07 1011.47 1011.75 1012.43 1012.99 1013.23 1013.35 1013.63 1013.95 1014.23 1014.91 1014.83 1015.15 1016.39
1009.27 1008.67 1008.07 1007.47 1006.79 1006.23 1005.83 1005.67 1005.47 1005.11 1005.03 1005.15 1005.15 1005.19 1005.19 1005.23 1005.23 1005.27 1005.31 1005.31 1005.39 1005.51 1005.67 1005.83 1005.87 1005.91 1005.91 1005.91 1005.91 1005.99 1006.11 1006.11 1006.07 1006.11 1006.23 1006.31 1006.35 1006.43 1006.55 1006.75 1007.03 1007.39 1007.83 1008.15 1008.47 1008.95 1009.43 1009.99 1010.55 1011.27 1011.71 1012.03 1012.63 1013.39 1013.63 1013.55 1013.47 1014.03 1014.23 1014.39 1015.03 1015.83 1016.55
1009.15 1008.59 1008.07 1007.63 1006.95 1005.95 1005.63 1005.47 1005.31 1005.27 1005.27 1005.27 1005.23 1005.23 1005.23 1005.27 1005.35 1005.43 1005.43 1005.51 1005.47 1005.87 1006.19 1006.15 1006.15 1006.39 1006.39 1006.43 1006.43 1006.55 1006.67 1006.71 1006.67 1006.75 1006.87 1007.11 1007.23 1007.31 1007.39 1007.55 1007.75 1008.03 1008.19 1008.47 1008.83 1009.31 1009.71 1010.11 1010.51 1011.15 1011.75 1012.23 1012.79 1013.19 1013.71 1013.95 1014.11 1014.11 1014.27 1014.51 1015.03 1015.67 1016.63
1009.43 1008.87 1008.35 1007.71 1007.07 1006.19 1005.95 1005.75 1005.55 1005.51 1005.47 1005.51 1005.55 1005.59 1005.59 1005.63 1005.63 1005.67 1005.75 1005.87 1005.91 1006.35 1006.71 1006.67 1006.71 1006.79 1006.91 1006.95 1007.03 1007.15 1007.11 1007.15 1007.23 1007.27 1007.35 1007.47 1007.71 1008.07 1008.23 1008.23 1008.43 1008.55 1008.59 1008.87 1009.19 1009.59 1010.03 1010.43 1010.91 1011.43 1011.95 1012.39 1012.87 1013.31 1013.75 1014.07 1014.31 1014.43 1014.71 1015.15 1015.51 1015.83 1016.35
1009.71 1009.27 1008.83 1008.23 1007.71 1007.07 1006.55 1006.31 1006.15 1006.03 1005.99 1005.99 1006.03 1006.07 1006.11 1006.11 1006.15 1006.15 1006.19 1006.19 1006.59 1007.03 1007.19 1007.31 1007.35 1007.39 1007.47 1007.47 1007.55 1007.63 1007.67 1007.75 1007.87 1007.95 1008.07 1008.11 1008.35 1008.63 1008.87 1008.91 1008.99 1008.95 1009.11 1009.35 1009.63 1009.91 1010.39 1010.87 1011.31 1011.79 1012.27 1012.67 1012.99 1013.15 1013.71 1014.07 1014.35 1014.79 1015.03 1015.35 1015.83 1016.55 1016.91
1010.15 1009.83 1009.35 1008.83 1008.43 1007.95 1007.51 1007.19 1006.99 1006.79 1006.67 1006.59 1006.55 1006.55 1006.55 1006.63 1006.79 1006.83 1006.87 1006.99 1007.55 1007.67 1007.91 1008.07 1008.03 1008.11 1008.15 1008.11 1008.11 1008.11 1008.19 1008.35 1008.51 1008.67 1008.75 1008.87 1009.03 1009.11 1009.23 1009.35 1009.39 1009.43 1009.59 1009.75 1009.99 1010.39 1010.91 1011.31 1011.75 1012.03 1012.35 1012.87 1013.23 1013.47 1013.67 1014.07 1014.55 1014.83 1015.11 1015.63 1015.95 1016.51 1017.23
1010.95 1010.43 1010.19 1009.79 1009.31 1008.79 1008.31 1008.07 1007.83 1007.63 1007.47 1007.31 1007.19 1007.07 1007.11 1007.15 1007.43 1007.71 1007.99 1007.95 1008.23 1008.43 1008.59 1008.59 1008.59 1008.55 1008.59 1008.51 1008.47 1008.63 1008.75 1008.91 1009.07 1009.15 1009.19 1009.23 1009.27 1009.39 1009.47 1009.59 1009.75 1009.99 1010.15 1010.31 1010.47 1010.67 1011.07 1011.51 1011.91 1012.23 1012.43 1012.63 1013.15 1013.63 1014.03 1014.43 1014.75 1014.91 1015.07 1015.55 1016.27 1016.83 1017.47
1011.95 1011.47 1011.03 1010.43 1009.91 1009.39 1009.07 1008.87 1008.67 1008.47 1008.23 1008.11 1007.91 1007.83 1007.63 1007.99 1008.59 1008.71 1008.87 1008.95 1009.07 1009.03 1009.11 1009.11 1009.03 1008.87 1008.87 1008.91 1008.99 1009.15 1009.35 1009.59 1009.71 1009.75 1009.79 1009.79 1009.67 1009.67 1009.83 1009.99 1010.15 1010.35 1010.55 1010.87 1011.07 1011.23 1011.35 1011.63 1011.99 1012.27 1012.67 1013.07 1013.31 1013.51 1013.99 1014.51 1014.83 1015.15 1015.55 1015.79 1016.23 1016.71 1017.23
Wind_Speed
10 10 10 10 12 13 12 12 12 12 11 9 10 11 10 10 12 11 10 9 9 9 8 9 9 9 8 8 9 8 9 8 8 7 6 6 6 7 7 8 8 9 9 1 1 2 5 7 8 7 9 9 8 7 8 8 8 8 8 8 8 7 13
10 10 11 12 13 14 13 13 14 11 7 7 9 10 9 10 10 11 10 8 8 9 8 8 9 9 9 8 9 8 8 7 7 6 6 6 6 7 7 8 8 9 9 7 3 3 2 5 7 8 8 10 10 9 8 10 9 8 9 8 7 7 7
10 10 11 12 13 13 13 11 8 8 7 7 8 9 9 10 11 11 10 9 9 9 9 9 9 9 8 7 8 8 7 7 7 6 7 7 6 7 7 7 9 8 9 9 5 5 5 6 6 8 9 10 9 8 9 10 10 9 7 6 7 7 6
11 11 12 13 12 10 8 9 8 9 8 8 9 8 8 10 10 10 10 10 9 10 9 9 9 8 8 8 8 7 6 6 7 7 7 7 7 7 8 7 8 10 8 8 7 5 6 6 7 5 2 6 5 8 8 8 7 5 6 7 6 7 7
10 11 11 12 12 11 10 10 10 10 10 9 8 8 8 10 10 10 9 9 9 10 9 9 9 8 8 8 8 7 7 6 8 7 7 7 7 7 7 7 7 9 9 7 7 5 5 5 4 4 4 8 9 7 5 4 6 7 7 6 5 5 5
9 9 12 12 12 12 11 11 10 11 11 11 10 8 8 8 9 10 8 6 8 7 7 7 8 8 8 8 9 8 7 8 9 8 8 8 8 7 7 8 7 8 9 9 8 6 6 6 6 5 4 8 8 9 7 4 3 3 4 6 5 4 4
9 9 9 10 10 11 11 11 10 10 11 11 10 9 9 9 9 9 9 7 6 5 5 6 6 7 7 8 8 9 8 8 8 8 9 9 9 8 8 7 7 8 9 9 9 5 7 8 7 7 7 6 8 8 9 11 8 5 4 5 6 5 2
10 9 9 10 10 10 9 11 10 10 11 10 9 8 9 9 8 8 9 8 6 5 5 6 6 7 7 8 8 9 9 9 8 8 8 8 7 7 8 7 7 8 8 8 8 7 7 7 8 5 2 5 7 6 4 6 8 11 8 5 4 5 7
12 11 10 10 9 11 10 9 10 8 7 8 9 10 10 10 9 9 9 8 7 6 6 6 6 7 7 9 11 13 12 11 11 9 9 8 7 8 7 7 7 7 7 7 8 6 6 7 7 7 8 9 9 11 12 9 4 4 6 6 5 4 5
12 11 11 11 11 10 9 9 8 13 21 18 11 9 9 9 9 8 8 8 7 7 6 7 7 7 11 12 14 14 15 15 15 15 11 8 8 8 7 7 7 7 7 7 8 7 8 8 9 9 10 11 11 9 4 7 8 9 7 6 3 2 1
11 10 10 11 11 11 10 9 9 19 20 21 22 15 10 10 9 8 8 8 8 8 7 6 7 7 8 10 11 12 16 16 16 16 16 14 13 11 10 8 8 7 8 7 7 6 8 9 10 10 10 10 9 7 9 10 10 8 8 10 10 9 3
11 10 10 10 10 10 10 9 14 19 19 20 20 18 12 9 9 8 8 8 8 8 7 7 7 6 6 7 9 9 9 13 15 16 16 16 15 15 15 13 10 8 7 8 7 7 8 9 10 10 9 8 8 9 8 6 7 9 11 11 10 8 8
11 11 10 10 11 11 10 10 16 19 20 20 20 20 16 9 9 9 9 8 9 9 8 7 7 6 6 8 14 11 9 9 10 14 16 15 15 15 16 15 15 13 9 7 8 8 8 9 9 9 9 10 10 10 10 8 7 7 8 9 11 9 7
12 11 10 10 11 10 10 11 16 20 20 20 20 19 16 10 11 9 10 10 10 9 9 9 8 8 7 7 8 8 10 10 9 9 9 10 10 9 11 14 15 14 13 10 8 8 10 10 7 9 9 8 8 10 10 10 10 9 8 9 8 5 6
10 10 11 10 9 9 10 10 18 19 19 19 19 19 16 11 11 10 10 10 10 10 10 10 9 9 9 8 8 9 11 10 10 10 9 9 9 9 9 9 9 8 8 7 7 7 8 7 8 8 6 8 9 11 11 10 11 11 9 6 6 6 5
9 10 10 10 9 9 9 10 18 18 19 19 18 19 12 11 12 11 11 11 11 11 11 10 10 10 10 10 10 14 19 16 10 10 11 11 10 9 9 9 9 13 12 10 8 7 5 6 9 8 8 10 9 6 6 7 7 7 7 8 6 6 5
9 9 10 10 9 9 9 10 13 16 15 15 16 16 11 11 11 11 12 11 11 12 11 11 11 11 10 10 10 14 18 19 15 9 11 10 10 10 9 8 7 12 15 15 15 14 13 12 14 14 15 17 16 11 9 8 8 8 9 9 8 5 6
9 8 7 8 10 9 9 9 11 15 16 16 17 7 2 7 8 11 10 10 10 9 10 12 16 13 11 10 11 17 18 19 15 10 10 10 10 11 10 9 6 4 8 16 16 16 16 15 15 16 17 18 18 18 13 11 12 10 8 8 8 8 6
8 9 9 9 10 14 13 9 11 15 16 15 16 9 2 2 2 4 6 6 6 6 6 7 10 16 13 11 12 17 17 19 16 10 11 11 10 11 11 10 8 7 6 7 8 9 11 10 14 12 11 12 20 20 15 11 10 10 10 10 8 7 7
8 10 10 10 9 9 9 8 8 10 16 14 13 13 4 2 3 2 1 1 3 4 4 4 4 8 14 17 16 16 18 18 20 12 10 9 9 10 12 9 8 8 8 7 7 7 9 9 9 9 8 9 12 13 13 10 9 11 10 9 8 9 10
9 9 10 9 9 8 8 7 7 9 14 14 12 12 8 1 0 0 1 2 2 2 2 3 5 5 9 15 17 18 18 19 21 19 11 11 10 11 11 9 7 9 9 7 7 6 6 7 7 8 7 7 8 8 8 7 7 8 8 9 9 8 7
8 8 9 9 8 7 7 8 10 7 9 12 12 11 9 4 2 3 1 2 3 3 3 4 3 3 7 14 15 17 19 20 20 21 12 11 14 16 16 10 9 8 7 7 6 6 6 7 7 8 8 7 7 8 7 7 6 7 7 7 8 11 10
10 9 10 10 9 8 7 7 7 10 7 9 10 10 8 7 4 5 3 4 4 5 5 4 5 7 9 10 13 16 19 19 20 16 12 18 19 17 17 13 8 8 8 7 7 8 7 7 7 7 7 7 7 6 6 5 4 4 4 5 5 3 3
9 9 10 10 10 9 8 7 5 6 8 6 8 8 8 6 7 7 4 5 4 4 5 5 6 7 11 12 13 15 16 16 14 10 11 17 18 17 16 9 8 9 9 9 8 9 8 8 8 8 8 7 7 6 6 6 6 7 7 8 8 8 8
9 9 9 9 9 9 9 7 4 4 5 7 7 7 8 7 8 7 8 4 4 5 5 6 10 11 11 12 12 13 14 12 10 12 12 13 17 17 10 10 8 9 9 9 9 9 8 8 8 7 7 8 9 9 8 8 7 8 9 10 12 12 13
9 9 9 9 8 8 8 7 4 5 5 4 5 5 5 5 3 1 1 1 2 2 3 4 3 5 6 6 6 5 5 5 6 8 8 9 12 10 9 10 9 9 10 9 9 9 9 7 6 7 7 8 9 10 8 9 8 9 6 7 8 8 8
10 9 8 8 9 9 8 5 4 5 4 4 3 1 2 4 4 5 6 5 4 4 4 3 3 4 7 8 10 8 8 8 3 1 2 1 4 6 7 8 11 12 12 11 10 8 7 7 7 7 9 8 7 7 5 6 9 9 7 7 7 9 6
8 8 9 9 9 9 8 5 4 5 5 5 3 2 3 3 3 4 3 4 3 3 3 3 5 6 4 4 5 5 5 5 5 5 4 4 3 3 3 4 7 6 5 5 7 8 8 8 8 9 8 7 7 7 6 5 7 9 8 6 8 7 5
10 9 9 9 9 9 7 5 5 5 6 4 6 4 3 4 3 3 2 4 5 4 4 4 5 4 5 5 5 5 4 4 5 6 6 6 6 5 5 5 5 7 7 8 10 10 11 11 8 7 7 8 8 6 6 5 7 6 9 5 4 7 8
11 12 10 10 10 9 6 5 5 6 10 10 9 8 8 7 7 7 6 7 9 5 4 4 5 5 4 4 4 4 4 4 4 5 6 6 6 6 6 6 6 6 7 7 8 9 9 9 9 8 8 8 8 7 5 5 7 7 7 8 7 8 6
22 23 23 16 11 10 10 9 10 13 11 12 12 11 11 10 8 7 6 5 5 5 4 4 5 5 4 4 4 4 4 4 4 5 6 5 5 6 6 6 6 6 7 8 8 8 8 8 9 9 8 9 8 9 6 5 5 6 5 7 8 8 7
22 24 24 26 23 13 3 9 12 13 13 13 13 12 11 11 10 9 8 8 8 5 5 4 4 4 4 4 5 4 4 5 4 4 5 5 6 5 5 5 6 5 6 7 8 8 8 8 8 8 8 8 8 8 7 7 7 6 6 5 5 6 7
23 24 24 25 25 25 18 15 14 15 14 12 11 11 11 12 13 11 8 10 7 5 5 4 4 4 4 4 4 4 4 4 4 4 5 5 6 6 5 5 5 6 7 6 7 7 7 7 7 8 7 7 8 9 9 7 7 6 6 7 7 5 5
22 23 25 24 25 23 23 22 20 18 16 14 12 11 10 10 9 14 16 11 5 5 5 4 4 4 4 4 4 4 4 4 4 4 5 6 6 6 5 6 5 5 6 6 7 7 7 7 7 7 9 8 6 5 7 8 7 7 8 6 7 8 6
13 16 21 18 16 20 22 21 20 19 18 18 15 11 11 13 9 7 7 8 7 5 5 4 3 4 4 4 4 4 4 4 4 4 4 5 6 5 5 5 5 5 4 5 6 7 7 7 8 7 6 9 9 8 7 7 7 6 7 8 7 7 7
10 9 13 19 20 24 20 20 19 19 20 20 19 18 13 8 6 6 6 6 5 5 4 3 3 3 4 3 4 4 4 3 4 4 5 3 4 5 5 5 5 5 6 5 5 5 7 8 7 8 7 6 6 7 8 7 6 6 5 6 7 7 8
Wind_Direction
275 273 274 277 276 274 274 271 270 270 270 280 287 263 243 241 243 244 236 235 228 221 218 217 218 220 220 220 220 217 215 211 203 205 210 208 207 211 206 209 213 224 235 163 313 160 179 177 155 180 189 187 183 180 191 193 197 188 190 192 194 195 211
272 272 273 273 272 270 265 264 265 271 287 297 303 310 274 246 241 241 239 230 225 225 220 220 219 218 220 221 226 216 210 198 197 201 206 211 215 212 212 206 209 220 231 214 178 146 146 139 173 181 185 185 184 193 181 192 195 196 195 196 187 185 197
267 270 273 270 266 262 258 263 281 290 293 294 295 298 309 289 246 230 225 224 223 226 218 217 215 217 216 218 222 218 208 198 199 201 208 213 210 218 219 211 211 215 224 220 200 184 166 172 185 186 185 191 193 188 184 188 197 196 197 196 188 191 195
292 295 294 293 276 269 290 300 300 298 290 289 286 289 293 300 290 243 226 221 222 218 214 210 213 213 215 214 220 223 215 206 201 205 210 214 214 215 220 216 213 219 228 221 200 181 183 188 176 193 164 173 172 173 185 196 194 187 190 192 192 194 199
287 287 288 288 295 303 303 301 297 292 290 285 284 283 285 292 296 283 236 218 217 216 208 206 207 210 213 212 216 213 212 209 207 206 209 214 215 214 213 215 211 218 225 227 214 175 180 165 176 178 159 169 169 174 174 174 184 190 188 183 186 188 193
276 279 281 283 286 288 287 288 286 282 283 282 280 277 279 284 286 290 291 245 221 214 204 205 205 209 208 211 214 217 216 213 210 207 208 213 217 214 212 211 209 211 219 223 225 176 159 171 164 171 157 183 174 165 160 170 177 176 175 175 181 190 178
273 270 268 270 272 273 275 276 275 277 275 276 278 279 279 281 284 287 284 275 248 221 209 205 207 208 209 211 212 214 217 215 215 209 212 212 213 214 214 210 206 206 211 216 217 195 175 169 187 175 167 182 178 181 177 169 167 189 203 178 176 171 154
274 274 271 271 270 268 267 267 267 265 268 269 272 277 277 272 272 273 275 271 257 239 219 214 211 211 209 209 213 214 213 213 216 211 216 216 212 210 209 209 206 207 206 209 212 192 180 178 173 162 106 143 157 162 205 202 177 180 176 169 165 168 162
283 278 273 268 263 265 261 259 258 256 252 255 255 255 259 259 256 259 266 264 254 240 230 222 218 216 217 213 218 215 216 213 210 210 214 213 205 208 206 207 207 207 206 208 208 190 177 170 173 174 162 162 178 194 197 182 144 139 160 162 154 176 176
277 273 270 271 269 263 259 256 253 257 259 256 250 243 244 249 251 252 253 253 253 245 232 227 222 223 219 217 221 221 221 221 217 215 212 203 196 200 203 206 206 205 204 204 205 185 176 174 180 181 184 180 192 192 132 135 163 170 158 138 124 169 192
274 271 267 265 265 262 256 251 250 258 258 258 254 249 240 239 246 246 245 247 246 248 240 234 227 228 230 227 229 227 226 223 221 219 216 209 200 194 192 198 204 208 204 202 205 186 184 182 184 189 185 191 180 172 174 175 180 160 151 162 171 196 188
269 267 263 261 261 260 261 258 262 262 260 257 254 248 241 235 239 240 240 241 240 241 242 241 237 230 224 223 224 224 226 225 222 220 217 214 208 205 202 196 191 200 205 200 199 190 190 188 193 185 184 182 175 175 178 173 169 173 172 173 188 189 190
275 272 266 261 264 266 264 263 263 266 266 261 255 250 243 236 224 225 232 233 235 237 239 238 237 238 224 224 229 225 221 219 220 221 217 217 217 214 211 208 204 203 203 197 199 195 198 201 190 183 191 185 180 175 167 160 171 181 186 186 186 189 168
279 277 271 265 262 261 260 256 265 266 265 262 256 248 243 231 231 225 224 226 228 231 233 230 228 229 229 223 222 219 217 216 214 214 216 217 217 216 219 217 211 209 210 205 201 195 203 209 186 189 193 187 164 165 169 176 181 184 178 187 193 169 132
283 275 270 265 257 254 258 258 266 268 265 262 256 249 240 226 224 225 223 221 221 225 227 227 224 222 226 223 216 216 214 210 210 209 210 212 215 212 211 213 212 208 207 204 201 205 209 196 189 197 172 167 179 182 183 180 179 177 174 140 86 57 119
276 279 281 276 266 258 257 263 273 273 271 264 258 250 237 222 218 218 220 222 225 225 227 226 222 221 222 221 219 221 218 213 206 204 206 207 211 212 210 214 212 204 199 193 193 195 179 177 191 178 163 173 176 162 115 93 84 88 110 127 140 140 159
294 290 288 289 285 268 267 278 280 281 293 293 278 245 224 220 214 213 212 217 218 221 223 221 219 218 218 217 220 224 220 219 206 200 204 203 206 209 207 210 216 212 203 201 203 203 196 183 189 182 176 176 170 159 143 124 129 160 162 151 160 162 153
290 287 290 298 302 299 301 296 288 307 320 325 337 1 221 205 205 202 208 212 215 220 221 218 214 212 212 213 218 226 222 218 207 195 198 201 203 205 206 205 193 197 209 203 203 207 203 189 186 185 180 178 173 164 154 158 177 175 156 169 171 167 165
302 301 305 303 299 303 306 305 308 311 318 325 338 353 34 35 151 181 193 201 206 210 210 208 213 215 212 213 220 224 223 218 210 197 198 197 197 200 202 206 183 187 198 202 200 201 195 187 187 184 177 178 173 169 171 179 169 158 170 179 171 143 125
305 303 301 300 299 298 297 298 298 301 306 321 329 340 7 53 46 29 98 186 213 203 221 219 216 223 221 222 221 224 224 220 210 201 199 194 196 196 208 199 187 197 185 192 194 196 187 182 174 175 174 174 174 176 178 177 170 175 173 168 161 165 172
305 302 301 300 299 293 295 290 290 292 306 312 320 326 340 105 110 168 333 327 332 314 275 228 219 216 225 228 228 225 227 227 222 208 198 196 197 201 205 179 183 200 185 179 184 180 179 170 161 166 171 174 174 174 180 177 173 176 174 167 164 167 179
307 305 306 307 300 294 287 289 288 289 292 302 308 316 314 324 267 188 158 223 246 254 258 253 265 254 227 228 232 235 236 231 230 221 207 200 203 205 200 183 187 182 176 174 180 173 170 165 159 162 170 170 169 172 174 173 168 175 182 180 172 170 169
319 321 318 315 310 307 297 283 285 284 288 301 300 299 297 285 284 261 233 210 225 222 229 232 246 250 255 251 246 239 239 240 237 232 214 207 204 202 196 181 168 167 173 175 178 179 178 171 166 160 163 159 159 159 151 140 132 118 102 70 45 62 165
319 318 315 314 312 312 308 301 286 291 309 305 297 289 287 277 266 259 224 212 225 235 230 232 230 242 252 254 256 255 252 251 250 250 224 207 207 201 201 187 166 169 175 174 176 182 181 181 177 165 157 156 148 137 114 95 84 81 78 73 64 52 51
310 308 306 306 306 307 306 309 319 307 304 305 304 300 291 278 272 265 261 251 230 222 230 235 243 247 252 257 258 256 258 262 259 257 257 222 202 199 195 193 175 177 172 175 177 181 183 178 172 162 150 132 122 113 106 97 82 79 84 87 84 68 53
308 305 303 298 296 306 312 318 327 317 311 296 298 296 331 27 65 54 228 155 141 188 208 231 244 243 246 255 264 259 248 231 231 236 238 238 222 201 196 188 183 176 176 178 177 174 174 154 127 113 119 125 131 135 142 136 127 120 114 120 111 90 50
312 305 307 309 317 314 318 323 324 324 308 296 286 282 20 45 30 40 52 39 20 38 22 44 68 73 80 78 65 55 49 48 9 245 220 191 207 205 195 189 187 184 184 184 176 161 132 128 122 113 119 135 139 129 131 141 136 126 130 120 110 106 93
311 325 325 321 316 317 322 331 330 318 320 313 328 60 58 53 57 48 56 58 38 35 44 48 50 50 37 50 52 49 49 49 51 44 44 54 53 69 97 115 104 75 95 99 119 117 119 113 133 138 140 130 125 127 122 132 131 132 128 129 127 101 107
335 331 328 321 320 319 323 340 342 306 322 52 58 78 46 48 44 51 40 78 82 60 38 37 41 36 41 39 55 52 46 37 62 53 46 49 47 60 76 93 126 137 130 136 132 138 140 139 131 126 124 125 116 121 124 121 109 115 125 105 76 125 141
345 346 342 337 327 317 324 310 294 346 59 65 62 69 74 75 66 62 62 68 63 63 65 50 56 41 38 39 50 57 49 49 56 64 56 48 55 58 65 76 85 100 115 114 120 127 130 132 128 125 129 123 122 113 109 125 133 133 137 128 128 129 141
355 357 356 354 339 330 355 5 44 62 65 61 59 55 53 52 52 51 52 69 67 38 40 45 65 45 40 43 54 55 47 46 62 69 75 55 46 49 66 79 88 100 111 113 118 117 118 127 132 134 135 133 131 129 120 99 86 113 120 131 138 135 142
360 360 358 0 1 4 3 42 65 65 61 56 54 52 47 46 47 53 64 67 76 69 39 37 64 65 52 53 61 52 52 50 59 60 71 81 75 51 45 74 85 91 101 112 114 120 126 127 128 130 130 130 130 125 125 126 125 120 116 102 99 125 141
1 1 0 4 5 16 39 51 57 60 59 58 55 59 59 58 51 42 43 54 53 76 58 42 51 60 53 54 65 54 58 53 44 55 61 61 78 73 53 64 71 89 89 94 110 112 114 117 119 123 122 124 132 134 133 133 125 118 114 121 116 108 112
358 358 1 3 6 13 23 28 33 34 37 39 44 49 56 61 55 52 50 63 66 59 57 45 60 51 55 61 63 58 64 56 45 59 77 76 76 87 87 82 75 83 98 106 111 110 111 114 121 129 130 127 118 114 121 125 132 134 132 132 138 137 139
342 352 358 1 3 10 20 26 28 32 34 32 30 36 57 54 40 32 12 32 34 46 49 56 61 67 52 56 67 59 69 62 67 73 78 94 98 90 90 93 89 85 80 100 115 121 125 130 131 129 129 135 134 130 126 130 134 140 139 135 131 130 121
343 342 344 358 7 11 14 21 26 33 35 33 35 35 40 50 36 38 31 36 31 44 42 57 54 66 57 58 66 71 63 64 76 74 80 67 94 103 98 98 104 105 98 83 87 105 125 127 130 132 125 106 103 123 130 135 135 132 127 128 134 140 140